Вернуться в каталог

STARLINK-36900

АктивенСвязьSSO
NORAD 67973·PAYLOAD·🇺🇸 United States

Запущен Feb 25, 2026 с Vandenberg Space Force Base

Loading…

Ближайшие Пролёты (ближайшие 24 часа)

TLE

СвежийSource: CelesTrak SupGP

Эпоха: Sep 15, 2026, 03:00 UTC

1 67973C 26038N   26258.12548611 -.00054679  00000+0 -16976-2 0  2583
2 67973  97.2847 266.5580 0001617  98.1173 159.6690 15.33462284    12

Отслеживайте STARLINK-36900 в реальном времени с AllMySat

Download on the App Store